Orbital Elements
Epoch 2016 Feb. 22.0 TT = JDT 2457440.5
T 2016 Mar. 6.99857 TT MPCW
q 2.9254810 (2000.0) P Q
n 0.10112748 Peri. 89.28840 +0.62619519 -0.77649589
a 4.5627141 Node 321.64795 +0.66272570 +0.57756524
e 0.3588288 Incl. 6.49988 +0.41069968 +0.25193753
P 9.75
From 51 observations 2015 Sept. 12-2016 Aug. 12, mean residual 0".4.
|